Вернуться в каталог

STARLINK-31276

АктивенСвязьVLEO
NORAD 59075·PAYLOAD·🇺🇸 United States

Запущен Feb 29, 2024 с Cape Canaveral Space Force Station

Loading…

Ближайшие Пролёты (ближайшие 24 часа)

TLE

СвежийSource: CelesTrak SupGP

Эпоха: Sep 14, 2026, 21:30 UTC

1 59075C 24041B   26257.89631944 -.00025241  00000+0 -91424-3 0  2578
2 59075  43.0032 321.7578 0001437 268.7199  68.6997 15.27590285    10

Отслеживайте STARLINK-31276 в реальном времени с AllMySat

Download on the App Store